Time,TemperatureF,DewpointF,PressureIn,WindDirection,WindDirectionDegrees,WindSpeedMPH,WindSpeedGustMPH,Humidity,HourlyPrecipIn,Conditions,Clouds,dailyrainin,SoftwareType,DateUTC
2013-06-12 00:03:00,73.0,70.0,29.79,West,267,0.0,-999.0,89,-99.99,,,-99.99,,2013-06-12 05:03:00,
2013-06-12 00:12:00,73.0,70.0,29.79,West,267,0.0,-999.0,89,-99.99,,,-99.99,,2013-06-12 05:12:00,
2013-06-12 00:22:00,73.0,69.0,29.80,West,267,0.0,-999.0,88,-99.99,,,-99.99,,2013-06-12 05:22:00,
2013-06-12 00:32:00,73.0,69.0,29.79,West,267,0.0,-999.0,88,-99.99,,,-99.99,,2013-06-12 05:32:00,
2013-06-12 00:42:00,74.0,70.0,29.78,West,267,0.0,-999.0,87,-99.99,,,-99.99,,2013-06-12 05:42:00,
2013-06-12 00:52:00,74.0,70.0,29.78,West,267,0.0,-999.0,87,-99.99,,,-99.99,,2013-06-12 05:52:00,
2013-06-12 01:02:00,74.0,70.0,29.78,West,267,0.0,-999.0,87,-99.99,,,-99.99,,2013-06-12 06:02:00,
2013-06-12 01:12:00,74.0,70.0,29.78,West,267,0.0,-999.0,87,-99.99,,,-99.99,,2013-06-12 06:12:00,
2013-06-12 01:22:00,73.0,70.0,29.78,WSW,240,0.0,-999.0,89,-99.99,,,-99.99,,2013-06-12 06:22:00,
2013-06-12 01:32:00,74.0,70.0,29.78,South,190,1.0,-999.0,87,-99.99,,,-99.99,,2013-06-12 06:32:00,
2013-06-12 01:42:00,74.0,70.0,29.78,South,190,1.0,-999.0,87,-99.99,,,-99.99,,2013-06-12 06:42:00,
2013-06-12 01:52:00,74.0,70.0,29.78,South,183,0.0,-999.0,87,-99.99,,,-99.99,,2013-06-12 06:52:00,
2013-06-12 02:02:00,74.0,70.0,29.78,South,183,0.0,-999.0,86,-99.99,,,-99.99,,2013-06-12 07:02:00,
2013-06-12 02:12:00,74.0,70.0,29.78,South,183,0.0,-999.0,86,-99.99,,,-99.99,,2013-06-12 07:12:00,
2013-06-12 02:22:00,73.0,69.0,29.79,South,183,0.0,-999.0,88,-99.99,,,-99.99,,2013-06-12 07:22:00,
2013-06-12 02:33:00,72.0,69.0,29.80,South,173,0.0,-999.0,89,-99.99,,,-99.99,,2013-06-12 07:33:00,
2013-06-12 02:43:00,72.0,69.0,29.80,South,173,0.0,-999.0,89,-99.99,,,-99.99,,2013-06-12 07:43:00,
2013-06-12 02:53:00,72.0,69.0,29.81,South,173,0.0,-999.0,90,-99.99,,,-99.99,,2013-06-12 07:53:00,
2013-06-12 03:02:00,72.0,69.0,29.81,South,173,0.0,-999.0,90,-99.99,,,-99.99,,2013-06-12 08:02:00,
2013-06-12 03:12:00,72.0,69.0,29.81,South,173,0.0,-999.0,90,-99.99,,,-99.99,,2013-06-12 08:12:00,
2013-06-12 03:22:00,72.0,69.0,29.81,South,173,0.0,-999.0,89,-99.99,,,-99.99,,2013-06-12 08:22:00,
2013-06-12 03:33:00,72.0,69.0,29.80,SSE,160,0.0,-999.0,90,-99.99,,,-99.99,,2013-06-12 08:33:00,
2013-06-12 03:43:00,72.0,69.0,29.80,SSE,160,0.0,-999.0,90,-99.99,,,-99.99,,2013-06-12 08:43:00,
2013-06-12 03:53:00,72.0,69.0,29.80,SSE,160,0.0,-999.0,90,-99.99,,,-99.99,,2013-06-12 08:53:00,
2013-06-12 04:01:00,72.0,69.0,29.80,SSE,160,0.0,-999.0,89,-99.99,,,-99.99,,2013-06-12 09:01:00,
2013-06-12 04:11:00,72.0,69.0,29.80,SSE,160,0.0,-999.0,89,-99.99,,,-99.99,,2013-06-12 09:11:00,
2013-06-12 04:22:00,71.0,68.0,29.80,SSE,160,0.0,-999.0,90,-99.99,,,-99.99,,2013-06-12 09:22:00,
2013-06-12 04:33:00,70.0,67.0,29.79,SSE,160,0.0,-999.0,91,-99.99,,,-99.99,,2013-06-12 09:33:00,
2013-06-12 04:42:00,70.0,67.0,29.79,SSE,160,0.0,-999.0,91,-99.99,,,-99.99,,2013-06-12 09:42:00,
2013-06-12 04:53:00,70.0,68.0,29.79,SSE,160,0.0,-999.0,93,-99.99,,,-99.99,,2013-06-12 09:53:00,
2013-06-12 05:02:00,69.0,67.0,29.78,SSE,160,0.0,-999.0,93,-99.99,,,-99.99,,2013-06-12 10:02:00,
2013-06-12 05:11:00,69.0,67.0,29.78,SSE,160,0.0,-999.0,93,-99.99,,,-99.99,,2013-06-12 10:11:00,
2013-06-12 05:23:00,70.0,68.0,29.77,SSE,161,2.0,-999.0,94,-99.99,,,-99.99,,2013-06-12 10:23:00,
2013-06-12 05:33:00,70.0,68.0,29.77,SE,136,0.0,-999.0,94,-99.99,,,-99.99,,2013-06-12 10:33:00,
2013-06-12 05:43:00,70.0,68.0,29.77,SE,136,0.0,-999.0,94,-99.99,,,-99.99,,2013-06-12 10:43:00,
2013-06-12 05:53:00,70.0,68.0,29.77,ESE,115,2.0,-999.0,94,-99.99,,,-99.99,,2013-06-12 10:53:00,
2013-06-12 06:02:00,70.0,68.0,29.79,ESE,115,0.0,-999.0,94,-99.99,,,-99.99,,2013-06-12 11:02:00,
2013-06-12 06:12:00,70.0,68.0,29.79,ESE,115,0.0,-999.0,94,-99.99,,,-99.99,,2013-06-12 11:12:00,
2013-06-12 06:24:00,70.0,68.0,29.80,ESE,115,0.0,-999.0,94,-99.99,,,-99.99,,2013-06-12 11:24:00,
2013-06-12 06:33:00,71.0,69.0,29.82,ESE,115,0.0,-999.0,93,-99.99,,,-99.99,,2013-06-12 11:33:00,
2013-06-12 06:43:00,71.0,69.0,29.82,ESE,115,0.0,-999.0,93,-99.99,,,-99.99,,2013-06-12 11:43:00,
2013-06-12 06:53:00,71.0,69.0,29.82,ESE,115,0.0,-999.0,93,-99.99,,,-99.99,,2013-06-12 11:53:00,
2013-06-12 07:01:00,71.0,69.0,29.83,ESE,115,0.0,-999.0,93,-99.99,,,-99.99,,2013-06-12 12:01:00,
2013-06-12 07:11:00,71.0,69.0,29.83,ESE,115,0.0,-999.0,93,-99.99,,,-99.99,,2013-06-12 12:11:00,
2013-06-12 07:23:00,71.0,69.0,29.83,ESE,115,0.0,-999.0,93,-99.99,,,-99.99,,2013-06-12 12:23:00,
2013-06-12 07:33:00,72.0,70.0,29.83,ESE,115,0.0,-999.0,92,-99.99,,,-99.99,,2013-06-12 12:33:00,
2013-06-12 07:42:00,72.0,70.0,29.83,ESE,115,0.0,-999.0,92,-99.99,,,-99.99,,2013-06-12 12:42:00,
2013-06-12 07:53:00,72.0,70.0,29.84,ESE,115,0.0,-999.0,92,-99.99,,,-99.99,,2013-06-12 12:53:00,
2013-06-12 08:01:00,72.0,70.0,29.83,NE,49,0.0,-999.0,92,-99.99,,,-99.99,,2013-06-12 13:01:00,
2013-06-12 08:12:00,72.0,70.0,29.83,NE,49,0.0,-999.0,92,-99.99,,,-99.99,,2013-06-12 13:12:00,
2013-06-12 08:22:00,72.0,70.0,29.83,NE,49,0.0,-999.0,92,-99.99,,,-99.99,,2013-06-12 13:22:00,
2013-06-12 08:32:00,73.0,70.0,29.83,NE,49,0.0,-999.0,91,-99.99,,,-99.99,,2013-06-12 13:32:00,
2013-06-12 08:43:00,73.0,70.0,29.83,NE,49,0.0,-999.0,91,-99.99,,,-99.99,,2013-06-12 13:43:00,
2013-06-12 08:53:00,73.0,70.0,29.83,NE,49,0.0,-999.0,91,-99.99,,,-99.99,,2013-06-12 13:53:00,
2013-06-12 09:02:00,74.0,71.0,29.83,NE,49,0.0,-999.0,89,-99.99,,,-99.99,,2013-06-12 14:02:00,
2013-06-12 09:11:00,74.0,71.0,29.83,NE,49,0.0,-999.0,89,-99.99,,,-99.99,,2013-06-12 14:11:00,
2013-06-12 09:24:00,74.0,71.0,29.83,NE,49,0.0,-999.0,89,-99.99,,,-99.99,,2013-06-12 14:24:00,
2013-06-12 09:33:00,74.0,71.0,29.83,NE,49,0.0,-999.0,89,-99.99,,,-99.99,,2013-06-12 14:33:00,
2013-06-12 09:43:00,74.0,71.0,29.83,NE,49,0.0,-999.0,89,-99.99,,,-99.99,,2013-06-12 14:43:00,
2013-06-12 09:53:00,77.0,71.0,29.81,SSE,166,0.0,-999.0,83,-99.99,,,-99.99,,2013-06-12 14:53:00,
2013-06-12 10:01:00,78.0,72.0,29.80,SSE,166,0.0,-999.0,82,-99.99,,,-99.99,,2013-06-12 15:01:00,
2013-06-12 10:12:00,78.0,72.0,29.80,SSE,166,0.0,-999.0,82,-99.99,,,-99.99,,2013-06-12 15:12:00,
2013-06-12 10:23:00,78.0,72.0,29.79,SSE,156,0.0,-999.0,82,-99.99,,,-99.99,,2013-06-12 15:23:00,
2013-06-12 10:33:00,79.0,73.0,29.75,SSE,153,0.0,-999.0,81,-99.99,,,-99.99,,2013-06-12 15:33:00,
2013-06-12 10:43:00,79.0,73.0,29.75,SSE,153,0.0,-999.0,81,-99.99,,,-99.99,,2013-06-12 15:43:00,
2013-06-12 10:52:00,78.0,72.0,29.68,ESE,107,3.0,-999.0,81,-99.99,,,-99.99,,2013-06-12 15:52:00,
2013-06-12 11:01:00,79.0,73.0,29.67,ENE,70,0.0,-999.0,81,-99.99,,,-99.99,,2013-06-12 16:01:00,
2013-06-12 11:12:00,79.0,73.0,29.67,ENE,70,0.0,-999.0,81,-99.99,,,-99.99,,2013-06-12 16:12:00,
2013-06-12 11:22:00,80.0,73.0,29.70,ESE,115,2.0,-999.0,80,-99.99,,,-99.99,,2013-06-12 16:22:00,
2013-06-12 11:32:00,82.0,72.0,29.68,SSE,151,2.0,-999.0,73,-99.99,,,-99.99,,2013-06-12 16:32:00,
2013-06-12 11:43:00,82.0,72.0,29.68,SSE,151,2.0,-999.0,73,-99.99,,,-99.99,,2013-06-12 16:43:00,
2013-06-12 11:52:00,82.0,72.0,29.68,SSE,151,2.0,-999.0,73,-99.99,,,-99.99,,2013-06-12 16:52:00,
2013-06-12 12:01:00,82.0,73.0,29.70,SSW,213,3.0,-999.0,75,-99.99,,,-99.99,,2013-06-12 17:01:00,
2013-06-12 12:12:00,82.0,73.0,29.70,SSW,213,3.0,-999.0,75,-99.99,,,-99.99,,2013-06-12 17:12:00,
2013-06-12 12:23:00,82.0,74.0,29.69,ESE,115,4.0,-999.0,76,-99.99,,,-99.99,,2013-06-12 17:23:00,
2013-06-12 12:33:00,83.0,74.0,29.71,SSW,213,2.0,-999.0,74,-99.99,,,-99.99,,2013-06-12 17:33:00,
2013-06-12 12:42:00,83.0,74.0,29.71,SSW,213,2.0,-999.0,74,-99.99,,,-99.99,,2013-06-12 17:42:00,
2013-06-12 12:52:00,86.0,74.0,29.70,SW,232,5.0,-999.0,68,-99.99,,,-99.99,,2013-06-12 17:52:00,
2013-06-12 13:02:00,87.0,73.0,29.70,SSE,153,4.0,-999.0,64,-99.99,,,-99.99,,2013-06-12 18:02:00,
2013-06-12 13:12:00,87.0,73.0,29.70,SSE,153,4.0,-999.0,64,-99.99,,,-99.99,,2013-06-12 18:12:00,
2013-06-12 13:22:00,87.0,73.0,29.70,SSE,153,4.0,-999.0,64,-99.99,,,-99.99,,2013-06-12 18:22:00,
2013-06-12 13:32:00,89.0,74.0,29.69,SE,135,2.0,-999.0,61,-99.99,,,-99.99,,2013-06-12 18:32:00,
2013-06-12 13:43:00,89.0,74.0,29.69,SE,135,2.0,-999.0,61,-99.99,,,-99.99,,2013-06-12 18:43:00,
2013-06-12 13:53:00,89.0,73.0,29.68,SSE,156,3.0,-999.0,60,-99.99,,,-99.99,,2013-06-12 18:53:00,
2013-06-12 14:01:00,90.0,74.0,29.67,SSE,154,3.0,-999.0,59,-99.99,,,-99.99,,2013-06-12 19:01:00,
2013-06-12 14:11:00,90.0,74.0,29.67,SSE,154,3.0,-999.0,59,-99.99,,,-99.99,,2013-06-12 19:11:00,
2013-06-12 14:22:00,90.0,73.0,29.67,West,266,4.0,-999.0,57,-99.99,,,-99.99,,2013-06-12 19:22:00,
2013-06-12 14:32:00,91.0,74.0,29.67,SW,217,3.0,-999.0,57,-99.99,,,-99.99,,2013-06-12 19:32:00,
2013-06-12 14:42:00,91.0,74.0,29.67,SW,217,3.0,-999.0,57,-99.99,,,-99.99,,2013-06-12 19:42:00,
2013-06-12 14:52:00,91.0,74.0,29.66,WSW,242,5.0,-999.0,57,-99.99,,,-99.99,,2013-06-12 19:52:00,
2013-06-12 15:01:00,91.0,74.0,29.66,WSW,242,5.0,-999.0,57,-99.99,,,-99.99,,2013-06-12 20:01:00,
2013-06-12 15:11:00,91.0,74.0,29.66,WSW,242,5.0,-999.0,57,-99.99,,,-99.99,,2013-06-12 20:11:00,
2013-06-12 15:22:00,91.0,73.0,29.66,WSW,238,8.0,-999.0,56,-99.99,,,-99.99,,2013-06-12 20:22:00,
2013-06-12 15:32:00,92.0,73.0,29.65,SSW,213,7.0,-999.0,55,-99.99,,,-99.99,,2013-06-12 20:32:00,
2013-06-12 15:43:00,92.0,73.0,29.65,SSW,213,7.0,-999.0,55,-99.99,,,-99.99,,2013-06-12 20:43:00,
2013-06-12 15:54:00,91.0,71.0,29.63,SW,225,5.0,-999.0,53,-99.99,,,-99.99,,2013-06-12 20:54:00,
2013-06-12 16:01:00,89.0,73.0,29.62,SW,216,4.0,-999.0,59,-99.99,,,-99.99,,2013-06-12 21:01:00,
2013-06-12 16:11:00,89.0,73.0,29.62,SW,216,4.0,-999.0,59,-99.99,,,-99.99,,2013-06-12 21:11:00,
2013-06-12 16:22:00,88.0,74.0,29.60,SSW,208,3.0,-999.0,64,-99.99,,,-99.99,,2013-06-12 21:22:00,
2013-06-12 16:33:00,88.0,74.0,29.58,ENE,72,4.0,-999.0,63,-99.99,,,-99.99,,2013-06-12 21:33:00,
2013-06-12 16:43:00,88.0,74.0,29.58,ENE,72,4.0,-999.0,63,-99.99,,,-99.99,,2013-06-12 21:43:00,
2013-06-12 16:53:00,88.0,75.0,29.57,WSW,244,7.0,-999.0,65,-99.99,,,-99.99,,2013-06-12 21:53:00,
2013-06-12 17:01:00,88.0,75.0,29.56,WSW,253,7.0,-999.0,66,-99.99,,,-99.99,,2013-06-12 22:01:00,
2013-06-12 17:11:00,88.0,75.0,29.56,WSW,253,7.0,-999.0,66,-99.99,,,-99.99,,2013-06-12 22:11:00,
2013-06-12 17:22:00,88.0,75.0,29.56,WSW,253,7.0,-999.0,66,-99.99,,,-99.99,,2013-06-12 22:22:00,
2013-06-12 17:32:00,88.0,75.0,29.56,WSW,253,7.0,-999.0,66,-99.99,,,-99.99,,2013-06-12 22:32:00,
2013-06-12 17:43:00,88.0,75.0,29.56,WSW,253,7.0,-999.0,66,-99.99,,,-99.99,,2013-06-12 22:43:00,
2013-06-12 17:52:00,89.0,73.0,29.54,SW,221,7.0,-999.0,60,-99.99,,,-99.99,,2013-06-12 22:52:00,
2013-06-12 18:02:00,89.0,74.0,29.54,SW,224,5.0,-999.0,61,-99.99,,,-99.99,,2013-06-12 23:02:00,
2013-06-12 18:12:00,89.0,74.0,29.54,SW,224,5.0,-999.0,61,-99.99,,,-99.99,,2013-06-12 23:12:00,
2013-06-12 18:22:00,89.0,74.0,29.53,WSW,237,10.0,-999.0,61,-99.99,,,-99.99,,2013-06-12 23:22:00,
2013-06-12 18:32:00,88.0,73.0,29.53,West,265,6.0,-999.0,62,-99.99,,,-99.99,,2013-06-12 23:32:00,
2013-06-12 18:42:00,88.0,73.0,29.53,West,265,6.0,-999.0,62,-99.99,,,-99.99,,2013-06-12 23:42:00,
2013-06-12 18:52:00,88.0,74.0,29.52,West,259,9.0,-999.0,63,-99.99,,,-99.99,,2013-06-12 23:52:00,
2013-06-12 19:01:00,88.0,72.0,29.53,WSW,253,11.0,-999.0,60,-99.99,,,-99.99,,2013-06-13 00:01:00,
2013-06-12 19:12:00,88.0,72.0,29.53,WSW,253,11.0,-999.0,60,-99.99,,,-99.99,,2013-06-13 00:12:00,
2013-06-12 19:22:00,87.0,72.0,29.53,West,267,10.0,-999.0,62,-99.99,,,-99.99,,2013-06-13 00:22:00,
2013-06-12 19:32:00,87.0,72.0,29.53,West,267,10.0,-999.0,62,-99.99,,,-99.99,,2013-06-13 00:32:00,
2013-06-12 19:42:00,87.0,72.0,29.53,West,267,10.0,-999.0,62,-99.99,,,-99.99,,2013-06-13 00:42:00,
2013-06-12 19:52:00,87.0,74.0,29.52,West,277,8.0,-999.0,65,-99.99,,,-99.99,,2013-06-13 00:52:00,
2013-06-12 20:01:00,87.0,74.0,29.52,West,277,8.0,-999.0,65,-99.99,,,-99.99,,2013-06-13 01:01:00,
2013-06-12 20:12:00,86.0,72.0,29.53,West,274,9.0,-999.0,64,-99.99,,,-99.99,,2013-06-13 01:12:00,
2013-06-12 20:22:00,86.0,73.0,29.53,WSW,246,9.0,-999.0,65,-99.99,,,-99.99,,2013-06-13 01:22:00,
2013-06-12 20:32:00,86.0,73.0,29.53,WSW,246,9.0,-999.0,65,-99.99,,,-99.99,,2013-06-13 01:32:00,
2013-06-12 20:43:00,85.0,72.0,29.54,West,269,8.0,-999.0,66,-99.99,,,-99.99,,2013-06-13 01:43:00,
2013-06-12 20:53:00,84.0,72.0,29.54,West,266,7.0,-999.0,67,-99.99,,,-99.99,,2013-06-13 01:53:00,
2013-06-12 21:02:00,84.0,72.0,29.54,West,266,7.0,-999.0,67,-99.99,,,-99.99,,2013-06-13 02:02:00,
2013-06-12 21:12:00,84.0,72.0,29.54,West,267,6.0,-999.0,68,-99.99,,,-99.99,,2013-06-13 02:12:00,
2013-06-12 21:22:00,84.0,72.0,29.54,West,267,6.0,-999.0,68,-99.99,,,-99.99,,2013-06-13 02:22:00,
2013-06-12 21:33:00,84.0,72.0,29.54,West,267,6.0,-999.0,68,-99.99,,,-99.99,,2013-06-13 02:33:00,
2013-06-12 21:43:00,84.0,72.0,29.54,West,267,6.0,-999.0,68,-99.99,,,-99.99,,2013-06-13 02:43:00,
2013-06-12 21:50:00,82.0,72.0,29.55,WSW,238,5.0,-999.0,71,-99.99,,,-99.99,,2013-06-13 02:50:00,
2013-06-12 21:52:00,82.0,71.0,29.55,WSW,257,5.0,-999.0,70,-99.99,,,-99.99,,2013-06-13 02:52:00,
2013-06-12 22:02:00,82.0,71.0,29.55,WSW,257,5.0,-999.0,70,-99.99,,,-99.99,,2013-06-13 03:02:00,
2013-06-12 22:12:00,82.0,72.0,29.55,WSW,238,5.0,-999.0,71,-99.99,,,-99.99,,2013-06-13 03:12:00,
2013-06-12 22:22:00,82.0,72.0,29.55,WSW,238,5.0,-999.0,71,-99.99,,,-99.99,,2013-06-13 03:22:00,
2013-06-12 22:33:00,82.0,72.0,29.55,WSW,238,5.0,-999.0,71,-99.99,,,-99.99,,2013-06-13 03:33:00,
2013-06-12 22:42:00,82.0,72.0,29.55,WSW,238,5.0,-999.0,71,-99.99,,,-99.99,,2013-06-13 03:42:00,
2013-06-12 23:12:00,77.0,68.0,29.61,NNW,347,11.0,-999.0,75,-99.99,,,-99.99,,2013-06-13 04:12:00,
2013-06-12 23:43:00,72.0,67.0,29.60,East,81,2.0,-999.0,84,-99.99,,,-99.99,,2013-06-13 04:43:00,
2013-06-12 23:53:00,72.0,67.0,29.60,East,81,2.0,-999.0,84,-99.99,,,-99.99,,2013-06-13 04:53:00,